sat.trackr.live / text

‹ back to catalog

STARLINK-35125

NORAD 65534 · 2025-200Q

PAYLOAD ACTIVE UNKNOWN

§ Identity

Operator
Country
US
Launch date
2025-09-06
Launch site
AFWTR
Launch vehicle
Mass (kg)
RCS (m²)

Purposes: comms

External: N2YO · Heavens-Above · Gunter

§ Orbital elements

Epoch: 2026-09-20T04:17:47.836032Z

Period
93.91 min
Inclination
97.2864°
Eccentricity
0.0000336
Mean motion
15.33463788 rev/d
Perigee alt
465.3 km
Apogee alt
465.7 km
Semi-major
6,843.6 km
B*
6.1087e-4
RAAN
329.5928°
Arg perigee
84.3523°
Mean anomaly
275.7758°
Rev number
5,859

§ Raw data

STARLINK-351251 65534U 25200Q   26263.17902588  .00019709  00000+0  61087-3 0  99912 65534  97.2864 329.5928 0000336  84.3523 275.7758 15.33463788 58592

JSON: /api/v1/satellites/65534 · /tle

For live sub-satellite position, see the globe view (requires WebGL).

§ Visibility from observer

Set your observer location to see the next 7 days of passes ≥ 10°. The values pass through the URL so the page stays shareable.

No JS? Fill the form by hand. The geolocation button needs JavaScript.